Location: Unspecified
(0.0000°N, 0.0000°E)
Time: 19:59:23
(UTC+02:00)

Cosmos 1072 Rocket - Visible Passes

Search period start: 31 May 2016 00:00
Search period end: 10 June 2016 00:00
Orbit: 948 x 1009 km, 82.9° (Epoch: 30 May)

Date Brightness Start Highest point End Pass type
(mag) Time Alt. Az. Time Alt. Az. Time Alt. Az.
31 May 5.0 21:25:25 10° NNE 21:31:16 38° E 21:31:39 38° E visible
31 May 6.8 23:12:25 10° NW 23:16:24 17° W 23:16:27 17° W visible
01 Jun 4.4 21:51:10 10° N 21:57:33 84° E 21:58:47 61° SSE visible
02 Jun 6.1 20:35:25 10° NE 20:38:44 15° E 20:41:08 12° ESE visible
02 Jun 5.5 22:17:50 10° NNW 22:23:51 44° W 22:25:57 34° SW visible
03 Jun 5.2 20:59:22 10° NNE 21:05:02 34° E 21:08:22 21° SE visible
03 Jun 6.7 22:45:41 10° NW 22:50:09 20° W 22:53:10 15° SW visible
04 Jun 4.4 21:24:57 10° N 21:31:18 74° E 21:35:38 22° S visible
05 Jun 5.3 21:51:27 10° NNW 21:57:36 51° W 22:02:59 14° SSW visible
06 Jun 5.4 20:33:22 10° NNE 20:38:47 29° E 20:44:12 10° SE visible
06 Jun 6.6 22:19:03 10° NW 22:23:54 23° W 22:28:47 10° SW visible
07 Jun 4.5 20:58:44 10° N 21:05:04 65° E 21:11:25 10° SSE visible
08 Jun 5.1 21:25:06 10° NNW 21:31:22 58° W 21:37:39 10° S visible
09 Jun 6.5 21:52:29 10° NW 21:57:40 26° W 22:02:52 10° SSW visible
